Погода в Красной Ниве

Россия / Курганская область     56°01′13″N   63°38′55″E
темп.,
°C
ветер,
м/с
пор.,
м/с
влажн.,
%
обл.,
%
осадки,
мм/ч
давл.,
гПа
погр.,
м
18 апреля, вс
вс1823:00+6зсз34727 0.0 101953
02:00+5зсз475851 0.0 1017113
05:00+3з3877100 0.0 1017146
08:00+6з612665 0.0 1015572
11:00+7с101062100 0.0 10161443
14:00+5ссв1011385 0.0 10211726
17:00+3ссв9103273 0.0 10242216
20:000св610361 0.0 1028851
19 апреля, пн
пн1923:00−2св69410 0.0 10311023
02:00−3св48450 0.0 10321153
05:00−4св36490 0.0 1034981
08:00−3ссв56405 0.0 10351217
11:00−1ссв57325 0.0 10351680
14:00+1ссв67275 0.0 10342059
17:00+2ссв5629100 0.0 10332200
20:00−1ссв22425 0.0 103419
20 апреля, вт
вт2023:00−2ссв22455 0.0 103414
02:00−2св11475 0.0 103410
05:00−3зсз22484 0.0 103524
08:00+1зсз36405 0.0 1034432
11:00+4з453155 0.0 10331423
14:00+7зсз67315 0.0 10301748
17:00+9зсз68305 0.0 10281798
20:00+5зсз34475 0.0 102851
21 апреля, ср
ср2123:00+3зсз49610 0.0 1028165
02:00+2сз48712 0.0 1029136
05:00+1сз37775 0.0 1030125
08:00+4с46675 0.0 1031289
11:00+8с45535 0.0 10311126
14:00+11с444374 0.0 10311775
17:00+11св444278 0.0 10321676
20:00+8св22525 0.0 103314
22 апреля, чт
чт2223:00+5вюв47635 0.0 1035134
02:00+4ююв36615 0.0 103699
05:00+3ююв35635 0.0 103771
08:00+6ююв45535 0.0 1038257
11:00+11ююв55420 0.0 1037971
14:00+13ю55375 0.0 10371728
17:00+14ю563659 0.0 10351798
20:00+10юв5950100 0.0 1036218